Terminal Aerodrome Forecast
Issued by NWS Melbourne, FL

Home | Current Version | Previous Version | Text Only | Print | Product List | Glossary On
Versions: 1 2 3 4 5 6 7 8 9 10 11 12 13
000
FTUS42 KMLB 041127
TAFMLB
TAF
KMLB 041127Z 0412/0512 18005KT P6SM BKN250
     FM041400 22006KT P6SM SCT025 SCT100 BKN250
     FM041800 13009KT P6SM SCT040 SCT250
     FM050000 16005KT P6SM FEW040 SCT250
     FM050600 22003KT P6SM SCT250=

USA.gov is the U.S. government's official web portal to all federal, state and local government web resources and services.